Location: Newark
(49.8969°N, 3.3422°E)
Time: 20:00:48
(UTC+00:00)

A-11 Canister half - Pass Details

Date: 26 January 2020
Orbit: 1517 x 1683 km, 47.2° (Epoch: 26 February)

Event Time Altitude Azimuth Distance (km) Brightness Sun altitude
Rises 21:56:15 0° 205° (SSW) 4,759 - -50.3°
Reaches altitude 10° 21:59:48 10° 196° (SSW) 3,753 - -50.7°
Maximum altitude 22:07:41 31° 138° (SE) 2,437 - -51.7°
Drops below altitude 10° 22:15:27 10° 81° (E) 3,689 - -52.5°
Sets 22:18:52 0° 72° (ENE) 4,667 - -52.9°
